Home > Time Zones > World Clock > Weather > Norway > Gran > Past weeks

Flag for Norway Weather past 2 weeks in Gran, Norway

Now
39 °F

Partly sunny.


Feels Like: 37 °F
Forecast: 30 / 41 °F
Wind: 3 mph from Northeast

Location: Oslo Gardermoen Airport

Current Time: Apr 28, 2015 at 10:17:57 PM

Latest Report: Apr 28, 2015 at 9:50 PM


Visibility: N/A

Pressure: 29.80 "Hg

Humidity: 65%

Dew point: 28 °F

Location of GranLocation

Historic Weather in Gran — Graph

°F

Gran temperature yesterday

Maximum temperature yesterday: 50 °F (at 5:20 PM)
Minimum temperature yesterday: 27 °F (at 5:20 AM)
Average temperature yesterday: 39 °F

Past Weeks' High & Low Weather Summary

 TemperatureHumidityPressure
High72 °F (Apr 20, 2:50 PM)100% (Apr 25, 6:20 PM)30.33 "Hg (Apr 25, 6:20 PM)
Low27 °F (Apr 14, 5:20 AM)15% (Apr 20, 4:20 PM)29.33 "Hg (Apr 25, 8:20 PM)
Average44 °F54%29.85 "Hg
* Reported Apr 13 8:20 PM — Apr 28 8:50 PM, Gran, Weather by CustomWeather, © 2015

Note: Actual official high and low records may vary slightly from our data, if they occured in-between our weather recording intervals... More about our weather records

Advertising

Gran weather history for previous 24 hours

 ConditionsComfort  
Time TempWeatherWind HumidityBarometerVisibility
8:50 PM
Tue, Apr 28
43 °FPartly sunny.6 mph57%29.77 "HgN/A
8:20 PM45 °FSprinkles. More clouds than sun.7 mph53%29.77 "HgN/A
7:50 PM45 °FPartly sunny.6 mph57%29.77 "HgN/A
7:20 PM46 °FScattered showers. Partly sunny.6 mph46%29.77 "HgN/A
6:50 PM46 °FScattered showers. Scattered clouds.7 mph46%29.77 "HgN/A
6:20 PM48 °FScattered showers. Scattered clouds.6 mph40%29.74 "HgN/A
5:50 PM50 °FScattered showers. Scattered clouds.8 mph37%29.74 "HgN/A
5:20 PM50 °FSprinkles. Scattered clouds.12 mph37%29.74 "HgN/A
4:50 PM50 °FPassing clouds.9 mph35%29.74 "HgN/A
4:20 PM50 °FPassing clouds.9 mph40%29.74 "HgN/A
3:50 PM50 °FScattered showers. Scattered clouds.6 mph37%29.74 "HgN/A
3:20 PM50 °FScattered showers. Scattered clouds.6 mph35%29.77 "HgN/A
2:50 PM50 °FPassing clouds.8 mph35%29.77 "HgN/A
2:20 PM50 °FPassing clouds.7 mph40%29.77 "HgN/A
1:50 PM50 °FScattered clouds.7 mph40%29.77 "HgN/A
1:20 PM48 °FScattered clouds.9 mph40%29.77 "HgN/A
12:50 PM46 °FScattered clouds.7 mph46%29.77 "HgN/A
12:20 PM46 °FScattered clouds.3 mph50%29.77 "HgN/A
11:50 AM46 °FPassing clouds.2 mph46%29.77 "HgN/A
11:20 AM45 °FPassing clouds.5 mph49%29.77 "HgN/A
10:50 AM45 °FPassing clouds.3 mph53%29.74 "HgN/A
10:20 AM43 °FPassing clouds.5 mph66%29.74 "HgN/A
9:50 AM43 °FFog.3 mph61%29.74 "HgN/A
9:20 AM39 °FFog.2 mph70%29.74 "HgN/A
8:50 AM37 °FFog.2 mph75%29.74 "HgN/A
8:20 AM36 °FPassing clouds.2 mph75%29.71 "HgN/A
7:50 AM34 °FPassing clouds.3 mph87%29.71 "HgN/A
7:20 AM32 °FPassing clouds.2 mph87%29.71 "HgN/A
6:50 AM30 °FPassing clouds.1 mph86%29.68 "HgN/A
6:20 AM28 °FPassing clouds.No wind93%29.68 "HgN/A
5:50 AM28 °FPassing clouds.No wind86%29.68 "HgN/A
5:20 AM27 °FPassing clouds.No wind93%29.65 "HgN/A
4:50 AM28 °FClear.3 mph86%29.65 "Hg10 mi
4:20 AM30 °FClear.No wind86%29.65 "Hg10 mi
3:50 AM28 °FClear.No wind93%29.65 "Hg10 mi
3:20 AM28 °FClear.5 mph93%29.65 "Hg10 mi
2:50 AM30 °FClear.2 mph86%29.65 "Hg10 mi
2:20 AM30 °FPassing clouds.3 mph93%29.65 "HgN/A
1:50 AM30 °FClear.2 mph86%29.62 "Hg10 mi
1:20 AM32 °FClear.3 mph87%29.62 "Hg10 mi
12:50 AM34 °FPassing clouds.3 mph87%29.62 "HgN/A
12:20 AM34 °FClear.No wind87%29.62 "Hg10 mi
11:50 PM
Mon, Apr 27
36 °FPassing clouds.6 mph81%29.62 "HgN/A
11:20 PM37 °FLight rain. Passing clouds.8 mph75%29.62 "HgN/A
10:50 PM39 °FPassing clouds.8 mph70%29.62 "HgN/A
10:20 PM37 °FPartly cloudy.3 mph65%29.62 "HgN/A
Weather by CustomWeather, © 2015

See weather overviewHow to use our weather pages